RH
87 85 81 79 77 77 81 84 85 86 85 83 84 86 87 86 85 85 85 83 81 79 79 78 78 80 85 88 89 88 88 86 85 84 85 86 86 86 87 88 88 88 87 89 92 94 95 94 94 93 92 89 86 82 78 73 69 66 64 61 59 57 57 56 54 53 54 61 69 76 81 81 81 79 77 75 74 74 76 77 79 81 84 85 84 83 85 84 83 81 81 82 81 81 81 79 80 80 79 81 81 78 76
88 87 81 77 77 79 84 84 85 85 85 83 83 85 86 87 84 81 81 83 83 81 79 77 73 72 76 82 86 88 86 84 84 84 85 85 85 87 87 87 87 87 86 91 95 97 98 97 97 96 96 92 89 84 79 73 69 66 64 61 60 58 57 56 56 56 57 60 67 74 80 82 81 80 79 77 76 74 74 76 78 81 83 86 86 85 85 84 83 81 79 81 82 83 82 81 79 78 78 81 82 81 78
90 92 88 83 82 82 85 84 83 81 79 80 79 79 80 85 84 81 82 85 84 83 83 80 78 78 82 82 85 87 85 81 82 83 83 83 84 85 84 83 83 84 86 91 95 98 98 99 99 98 95 92 88 84 78 72 68 64 62 61 60 60 60 59 58 57 58 61 67 74 79 81 81 80 80 78 77 77 76 75 76 77 81 82 84 84 84 82 81 80 77 78 80 82 83 83 80 77 77 80 82 82 80
92 93 92 87 85 85 86 85 83 81 79 80 79 78 76 81 83 84 87 86 85 84 86 82 82 83 87 84 84 84 84 81 82 84 85 86 85 85 85 85 85 84 84 87 91 95 97 97 95 93 88 84 80 76 71 67 64 62 61 60 61 62 63 64 63 62 62 65 69 73 78 80 81 80 80 80 79 79 79 78 76 76 77 78 79 79 78 78 78 78 76 76 76 77 81 83 81 80 80 79 80 82 81
93 92 89 86 86 87 85 84 81 79 78 78 75 73 72 76 79 82 85 85 85 84 83 79 81 83 83 80 80 82 83 82 83 84 85 86 86 85 85 86 86 85 85 84 84 85 87 85 82 78 74 71 68 64 61 61 61 61 61 62 64 65 67 68 70 72 73 71 71 73 76 80 82 82 82 80 80 79 78 79 79 78 76 76 76 76 75 75 75 76 76 75 75 76 79 80 81 82 82 81 80 81 82
89 86 87 84 84 84 80 80 78 76 74 75 74 73 72 75 79 83 85 83 81 81 83 77 78 81 78 79 79 80 81 82 83 83 81 82 84 85 84 85 86 86 85 80 76 74 73 70 67 63 61 60 59 58 59 60 62 63 64 66 68 70 71 72 75 78 82 83 79 75 73 77 81 83 83 81 80 79 78 78 78 79 77 77 78 78 78 78 78 78 77 76 76 78 79 79 79 80 81 81 79 78 80
82 79 81 78 79 80 79 78 77 75 73 71 72 75 79 81 83 85 85 84 84 84 84 85 83 82 80 79 79 80 83 83 81 79 78 80 81 83 84 86 87 86 81 75 70 66 64 61 58 56 55 56 57 59 62 65 66 68 68 70 71 72 73 73 76 81 86 88 85 82 78 79 79 79 82 82 81 80 80 78 78 78 78 79 80 81 82 82 82 82 82 81 80 80 80 81 81 81 80 80 79 78 77
72 70 69 76 78 78 79 78 81 82 76 75 75 77 80 80 80 80 80 79 79 79 81 83 84 83 84 83 81 80 81 80 80 82 84 81 81 82 83 84 82 80 76 72 69 67 65 62 60 59 59 61 63 65 68 69 70 71 71 72 72 72 72 72 75 81 89 94 94 90 86 85 84 81 76 77 80 83 82 79 77 77 77 78 79 80 82 83 83 84 84 84 84 83 82 81 81 81 81 81 80 79 78
66 66 66 74 78 79 78 79 79 79 76 77 78 78 77 76 77 79 83 79 78 79 81 83 82 79 80 79 77 77 77 79 80 83 85 83 83 83 80 78 76 75 73 72 70 69 68 67 66 66 67 68 69 71 72 72 72 72 72 72 72 72 71 71 74 79 88 92 92 90 90 86 84 81 77 80 83 84 81 77 76 77 78 78 79 80 82 82 83 83 84 84 85 85 84 83 82 81 79 80 80 80 79
63 66 68 71 72 72 70 72 74 76 76 76 78 79 78 77 78 79 79 78 78 79 78 79 79 78 75 76 79 80 78 78 78 79 80 81 81 80 77 76 75 74 73 72 71 71 71 70 70 70 71 72 72 73 73 73 73 73 72 72 72 72 71 71 72 74 80 85 88 88 89 87 85 83 80 81 81 80 79 78 80 81 81 81 81 82 82 82 82 82 82 83 84 85 85 84 82 81 81 79 80 81 81
58 61 65 67 67 67 69 71 74 76 75 77 78 78 77 76 74 74 73 73 74 74 75 77 76 75 75 75 76 77 78 78 78 79 80 79 78 76 75 74 74 74 73 73 73 73 73 72 72 72 72 73 73 73 74 73 73 73 73 73 72 72 72 72 71 71 72 78 81 83 84 83 82 82 82 81 81 82 81 79 79 80 81 82 81 81 80 80 81 81 82 84 85 87 87 85 85 84 83 81 81 82 82
55 57 60 62 64 66 66 67 68 69 71 74 74 73 73 72 71 72 73 75 76 77 77 76 75 75 75 76 76 76 77 77 77 77 77 76 75 75 74 74 73 73 74 74 73 73 73 72 72 72 73 73 73 73 74 74 74 73 73 73 73 73 73 72 73 73 75 77 80 82 84 82 81 81 83 83 83 83 82 81 80 79 80 80 79 79 79 79 79 80 81 84 85 86 87 88 88 88 87 85 83 81 81
59 62 64 65 65 64 64 65 66 67 68 69 69 70 70 71 72 73 75 77 78 78 77 76 76 76 76 76 76 76 76 76 76 75 75 74 74 73 73 72 72 72 73 73 73 72 72 72 72 72 73 73 73 74 74 74 74 74 74 73 73 73 73 74 76 78 82 85 86 87 89 87 86 86 86 85 85 85 86 87 87 86 85 85 84 84 83 84 83 82 83 84 84 86 88 91 93 94 93 92 90 87 84
66 67 68 67 67 67 67 68 68 68 68 69 70 71 72 73 75 76 78 79 79 78 77 77 76 76 76 76 76 76 75 75 75 74 74 74 73 73 73 72 72 72 73 73 72 72 72 72 72 73 73 73 74 74 74 74 74 74 73 73 73 74 74 76 80 85 88 88 88 89 91 91 92 91 89 89 90 91 91 90 90 89 90 90 90 90 90 90 90 89 89 90 91 91 91 91 93 94 96 97 96 94 91
69 70 70 70 70 70 69 68 68 69 70 71 72 73 74 75 76 76 77 78 77 77 76 76 76 76 75 75 75 75 75 75 74 74 74 74 73 73 73 73 73 73 73 73 72 72 72 73 73 73 74 74 74 74 74 74 73 73 73 73 73 73 74 78 84 89 89 87 87 88 88 88 87 87 87 87 88 89 89 89 90 90 92 92 93 93 93 93 94 95 96 97 96 95 93 91 91 92 94 95 95 96 96
68 69 70 70 70 70 69 69 70 70 71 72 73 73 74 75 76 76 77 77 77 77 76 76 75 75 75 75 75 75 74 74 74 74 73 73 73 73 73 73 73 73 73 72 72 73 73 73 73 73 73 73 73 73 73 73 72 72 71 71 71 72 74 79 85 88 85 85 85 85 85 84 83 83 84 84 84 84 85 86 87 88 90 91 92 93 94 95 96 97 97 96 95 93 91 90 90 90 89 88 89 91 93
67 67 68 69 69 70 70 70 70 71 72 72 73 74 74 75 76 76 77 77 77 76 76 75 75 75 75 75 74 74 73 73 73 73 72 72 72 72 72 72 72 72 72 72 72 73 73 73 73 73 73 73 73 73 72 72 71 71 70 70 70 71 73 79 84 85 82 83 83 82 81 80 80 79 81 82 82 82 82 83 84 85 87 88 89 90 93 93 93 94 94 93 90 86 84 85 84 84 85 85 86 88 89
66 67 68 69 70 70 71 71 71 71 71 72 73 74 75 75 76 76 77 76 76 76 75 75 75 75 74 74 73 73 72 72 71 71 71 70 70 70 70 70 71 71 71 72 73 73 73 73 73 73 73 73 73 73 73 72 72 71 71 71 71 72 73 78 82 84 80 81 80 80 78 78 77 78 79 80 80 81 82 82 83 84 85 86 86 87 88 87 89 90 91 89 87 85 84 85 86 86 87 86 87 89 90
68 69 71 71 71 71 71 71 71 71 71 72 73 74 75 76 76 76 76 76 76 75 75 75 74 74 74 73 72 71 70 70 70 70 69 69 68 68 69 70 71 72 73 74 74 74 74 73 73 73 73 73 73 72 73 72 72 72 72 72 73 74 76 79 82 83 80 80 78 77 77 77 77 77 78 79 79 80 80 81 82 83 83 83 83 83 85 85 86 87 86 86 85 84 85 86 87 87 88 86 86 88 90
70 71 73 73 72 72 72 72 72 72 72 72 73 74 75 76 76 76 76 76 76 75 75 74 74 74 74 73 71 69 68 68 69 68 68 68 68 69 70 71 72 73 73 73 73 72 71 70 70 69 69 69 69 69 69 70 70 70 71 72 73 75 77 81 84 85 83 81 79 77 76 76 77 77 78 78 78 78 79 80 81 82 82 82 82 81 83 81 81 81 82 83 83 83 84 85 86 87 87 85 86 87 89
72 73 74 73 73 73 73 73 72 72 72 73 74 74 75 76 76 76 76 76 76 75 74 74 75 75 75 73 70 68 67 67 68 68 68 68 69 69 70 71 71 70 70 69 68 67 66 65 64 63 62 62 62 62 63 64 65 66 67 68 69 71 74 78 83 87 87 84 81 79 77 77 78 78 78 78 77 77 78 78 79 80 81 82 82 82 82 79 78 77 77 78 79 79 80 81 82 83 86 86 87 88 87
73 73 74 74 74 74 73 73 73 73 73 73 74 75 75 76 76 77 77 77 76 76 75 75 76 76 76 73 69 67 66 66 66 67 67 68 68 68 69 68 68 67 66 65 63 62 60 59 57 56 54 54 54 55 56 57 58 59 60 61 62 63 65 68 75 81 85 83 80 78 76 76 76 76 76 77 77 77 78 78 78 79 79 80 80 78 77 77 77 76 75 75 75 75 75 77 80 83 85 85 86 86 85
73 74 74 74 74 74 74 74 74 73 73 74 74 75 76 76 77 78 78 78 78 77 76 76 76 76 76 73 69 66 65 65 65 65 66 66 66 66 65 64 63 62 61 60 58 57 55 53 51 49 48 47 48 48 49 49 49 50 51 51 52 52 53 56 62 68 70 71 71 71 71 71 70 71 71 73 74 76 77 77 77 77 77 77 75 73 73 73 74 74 73 73 73 73 73 76 79 81 83 85 86 85 83
74 74 74 74 74 74 74 74 74 74 73 74 75 75 76 77 78 80 81 80 79 78 76 76 76 76 76 72 69 66 65 64 63 62 62 61 61 60 59 58 58 57 56 56 55 53 51 48 46 45 44 43 43 43 43 42 42 42 42 43 43 43 43 45 49 52 53 58 61 63 64 64 65 65 66 66 68 70 73 75 77 78 78 78 76 73 72 73 74 75 76 75 74 72 73 76 78 80 82 85 84 83 83
74 74 75 74 74 74 75 74 74 74 74 75 76 76 77 79 81 82 83 82 79 76 75 74 74 75 75 71 68 65 63 61 59 58 56 55 54 53 54 54 55 54 54 53 52 50 48 46 44 43 42 41 40 39 39 38 37 36 36 36 37 37 37 38 40 42 43 48 52 57 60 61 62 62 61 60 60 61 64 68 73 77 81 83 81 77 72 73 75 79 83 83 81 79 80 80 80 81 82 84 83 81 79
75 75 75 75 75 75 75 74 74 74 75 77 77 78 80 82 84 85 84 81 77 74 72 72 72 73 73 69 66 63 60 58 55 52 51 49 48 49 50 51 52 52 51 51 49 48 46 44 42 40 39 38 37 36 36 35 34 34 34 34 34 35 35 36 37 38 39 43 49 55 60 61 61 61 59 58 56 55 55 60 66 72 78 81 81 79 75 76 80 86 91 93 94 94 94 90 88 87 86 84 81 77 76
76 76 74 75 76 76 75 74 75 76 78 79 81 82 82 84 85 84 82 77 74 72 71 70 70 71 70 66 63 60 57 54 51 48 46 44 44 44 45 45 46 46 46 45 44 44 42 41 39 38 36 36 35 34 33 32 32 32 32 33 34 34 35 36 36 37 38 42 50 58 61 61 61 61 61 60 57 55 56 58 63 69 76 78 80 82 84 89 94 97 98 99 99 99 97 94 91 89 89 84 80 77 79
76 76 75 76 76 76 76 76 77 79 82 83 84 84 83 84 82 79 74 70 68 66 67 68 68 68 66 62 59 57 55 51 48 45 43 42 41 40 39 38 37 37 37 38 39 39 38 37 36 35 34 33 33 32 31 31 30 30 31 32 33 33 34 35 35 36 38 45 53 60 60 59 59 60 60 59 58 58 62 65 69 73 77 80 83 87 91 93 93 92 90 88 89 92 94 92 90 88 90 87 85 85 84
77 76 76 76 76 77 77 77 79 81 83 84 83 81 80 76 73 69 65 63 62 63 64 64 63 62 61 57 55 54 52 48 45 44 42 41 39 37 34 33 32 31 31 33 34 35 35 33 32 32 31 30 30 30 29 29 29 30 30 31 31 32 33 33 33 34 35 44 52 56 54 54 54 56 58 60 61 62 67 68 70 72 73 75 76 78 80 83 83 80 75 74 76 81 87 88 88 88 89 89 87 83 79
77 76 76 76 76 76 76 77 77 75 71 70 70 70 67 64 62 60 60 60 60 60 60 59 58 57 55 52 51 51 48 45 43 42 41 39 36 34 32 30 29 29 29 31 31 31 30 28 28 27 28 28 28 28 28 28 29 29 29 29 30 30 30 30 30 31 32 39 46 51 49 48 48 50 53 56 60 63 66 65 64 64 65 65 65 65 65 66 66 64 63 64 67 71 75 80 83 85 86 85 84 82 78
77 76 76 76 76 76 75 74 71 67 61 60 59 58 56 57 58 58 57 57 57 57 56 55 54 53 51 49 47 46 43 42 41 41 39 36 33 30 29 28 28 28 29 29 28 26 25 24 24 24 26 26 27 27 28 28 28 28 28 27 28 28 28 28 28 28 29 32 38 43 43 42 41 43 48 53 56 58 59 58 58 58 59 59 58 57 57 57 58 58 57 57 58 59 62 65 67 68 69 70 72 73 75
76 75 74 74 73 73 71 70 67 64 60 57 55 54 53 53 54 54 53 52 52 51 50 50 49 48 45 44 42 40 38 38 38 37 35 32 29 27 26 26 26 26 27 26 24 22 21 20 21 23 25 26 27 27 28 28 27 27 26 26 26 26 26 27 27 27 28 28 31 35 36 36 36 38 40 47 51 53 54 54 56 57 57 57 57 57 57 56 56 56 56 56 57 57 57 57 57 57 58 60 61 62 63
74 72 71 70 69 68 67 66 63 60 56 54 52 51 50 49 48 48 48 46 46 46 46 45 43 42 40 39 37 36 35 35 33 31 29 27 25 24 23 24 24 23 22 21 19 18 18 19 21 23 24 26 26 27 27 27 26 25 24 24 24 25 26 26 27 27 27 27 27 28 30 31 32 33 34 41 45 48 50 51 52 54 55 55 55 55 54 54 54 54 54 55 56 56 56 56 56 57 58 58 58 58 59
71 69 67 65 64 63 63 60 57 54 51 50 49 48 47 46 45 44 44 43 43 43 43 41 39 37 36 35 33 32 31 30 28 25 23 22 20 20 20 20 19 18 17 15 15 15 18 20 22 23 24 25 26 26 27 26 25 24 22 22 23 24 26 26 26 26 26 26 26 26 26 26 28 29 29 34 39 44 45 47 48 49 49 50 50 51 51 51 51 51 52 52 53 53 54 54 54 55 56 55 56 56 57
70 68 65 63 60 59 59 56 53 51 49 48 47 46 46 45 45 44 43 42 42 42 41 37 35 34 33 31 29 27 26 24 21 18 17 17 16 16 15 15 14 14 13 13 14 16 21 23 24 24 25 26 26 27 26 25 23 21 20 21 22 24 25 25 26 26 26 25 25 25 25 25 25 25 25 30 35 40 43 44 44 43 43 44 45 46 47 48 48 49 50 50 51 51 51 51 51 52 52 52 53 54 54
69 68 65 62 58 55 54 52 50 48 47 46 46 45 44 43 43 42 41 40 40 39 37 33 31 29 27 25 23 21 19 17 14 13 13 13 13 13 12 12 12 13 13 14 15 19 24 25 26 26 26 27 27 27 26 23 21 19 19 20 22 23 24 25 25 25 25 24 24 24 24 23 23 23 23 25 30 36 39 40 40 39 38 39 40 42 44 46 47 48 48 48 48 48 48 48 49 50 50 50 51 52 52
67 65 62 58 53 51 51 49 47 46 45 44 44 43 41 39 38 37 37 36 36 34 31 27 24 22 20 18 16 15 14 12 11 11 11 12 12 12 12 13 13 14 14 15 17 20 25 26 26 26 27 28 27 26 24 21 19 18 18 19 21 23 24 24 24 24 23 23 23 22 22 21 21 21 21 23 27 31 34 35 35 34 33 35 38 41 43 44 45 46 46 46 46 46 46 47 48 48 49 49 50 50 50
64 61 56 52 49 47 47 45 44 43 43 42 41 39 37 35 34 33 32 31 29 27 24 21 18 16 15 13 12 12 12 12 12 12 13 13 13 13 13 14 15 15 16 16 18 21 25 26 26 26 27 27 26 25 23 20 17 16 16 18 20 22 23 23 23 23 22 21 21 20 20 19 19 19 19 20 23 26 28 28 28 27 26 32 37 40 42 43 43 43 44 44 45 45 46 46 47 47 48 48 49 49 49
61 57 54 50 47 44 41 40 40 40 39 38 36 34 33 32 30 29 27 25 23 21 20 16 14 12 11 10 10 12 14 14 14 14 15 15 15 15 15 16 16 16 17 17 19 21 25 26 26 26 27 27 26 24 22 19 16 14 15 17 20 22 23 23 22 21 20 20 19 19 18 18 18 18 17 19 20 22 24 24 23 23 23 30 35 38 40 41 42 43 43 44 44 45 45 46 47 47 48 49 49 49 49
56 53 52 48 43 37 34 35 36 35 35 33 32 30 29 28 27 25 23 21 19 18 17 14 12 11 10 10 11 12 14 15 15 16 16 17 17 17 17 17 17 17 17 18 19 21 24 24 25 26 26 26 25 23 21 18 15 13 14 16 19 21 22 21 21 20 19 19 18 18 17 17 17 17 17 17 19 20 21 21 20 21 21 29 34 37 39 42 43 43 43 44 44 45 45 46 47 48 49 50 50 50 50
53 51 48 45 38 32 32 32 33 32 31 30 29 28 27 25 24 22 19 16 14 13 14 13 12 12 13 13 13 14 15 16 16 17 17 18 18 17 17 17 16 16 17 18 19 21 22 23 24 26 26 26 25 23 21 17 13 12 13 15 18 19 20 20 20 19 19 18 18 18 17 17 17 17 17 17 18 18 18 18 18 19 20 28 33 36 38 42 43 43 43 44 44 45 46 47 48 50 51 51 51 51 51
50 46 41 36 32 28 29 30 30 30 28 27 26 25 24 23 21 19 15 11 10 10 12 13 14 15 16 17 17 17 17 17 17 18 18 18 18 17 16 16 16 16 17 18 18 20 20 22 24 26 26 25 24 22 20 16 12 11 12 14 17 18 19 19 19 19 19 18 18 18 18 17 17 17 17 17 17 17 17 16 17 18 19 25 30 34 37 41 43 44 44 44 45 47 48 49 50 51 51 51 51 51 51
41 35 32 28 27 26 26 27 27 27 26 25 23 22 22 21 18 15 11 9 8 9 12 14 16 17 18 20 20 21 20 19 19 19 20 19 17 16 16 16 16 16 16 17 17 18 19 21 24 26 26 24 23 21 18 14 12 11 12 14 16 17 18 18 18 18 18 19 19 18 18 18 18 17 17 17 17 16 16 16 16 17 19 23 27 31 35 39 41 43 44 44 47 49 50 50 51 52 51 51 51 51 51
30 27 26 25 25 25 24 24 24 24 23 22 21 20 20 18 16 12 9 8 8 10 13 16 18 20 21 23 24 25 25 24 23 21 20 19 17 16 16 16 16 16 16 15 16 16 17 20 23 25 24 23 21 19 16 13 11 11 12 14 16 17 17 18 18 18 19 19 19 19 19 19 18 18 17 17 16 16 16 16 16 16 18 20 23 27 32 36 39 41 43 44 48 50 50 50 51 51 50 50 50 50 49
24 24 23 23 23 22 22 22 21 20 19 19 18 18 18 16 12 9 8 8 8 10 12 16 19 21 23 25 26 27 27 26 24 22 21 18 17 16 17 17 16 16 16 15 15 15 16 19 21 23 22 21 20 18 14 12 11 11 12 14 15 16 16 17 18 18 19 19 20 20 20 19 18 18 17 17 16 16 15 15 15 16 17 18 20 23 27 32 35 37 39 42 46 49 50 50 49 49 49 49 48 48 48
21 21 21 21 20 20 20 20 19 17 16 16 17 16 15 12 10 8 7 8 8 9 11 13 16 19 22 24 25 26 26 25 23 21 20 19 18 18 18 18 17 16 16 15 14 14 15 18 20 22 21 20 18 16 13 11 10 11 12 13 14 15 16 16 17 18 19 19 20 20 19 19 18 18 17 17 16 16 15 15 15 15 16 17 18 20 23 27 30 32 35 38 43 46 48 48 47 47 47 47 47 46 46
18 18 19 19 18 17 17 18 17 16 14 15 15 14 13 10 8 7 7 8 8 9 11 12 14 16 19 20 22 23 24 23 22 21 20 19 19 20 20 19 17 17 16 15 14 14 15 17 19 20 20 19 17 15 12 11 11 13 14 15 15 15 16 16 17 18 18 19 19 19 19 18 18 18 17 17 17 16 16 15 15 15 16 16 17 19 21 23 24 26 29 34 40 44 47 47 46 46 46 45 45 46 46
17 18 18 18 17 16 15 17 17 15 14 14 14 13 12 10 9 8 9 8 9 10 11 11 13 15 16 17 19 21 23 23 22 22 23 22 22 22 21 20 18 17 16 15 14 14 14 17 19 20 19 18 16 14 11 12 14 16 17 17 17 16 16 17 17 18 19 19 19 19 19 18 18 17 17 17 17 17 17 16 16 16 16 17 18 18 20 21 22 23 25 31 37 42 44 44 44 45 44 45 46 46 47
18 18 17 16 15 15 15 17 17 17 15 14 13 12 11 10 10 9 9 9 9 10 11 11 13 15 17 18 20 23 24 24 24 23 25 26 26 24 22 20 19 17 16 15 14 14 14 17 19 19 18 17 14 13 12 15 17 18 18 18 17 17 17 18 18 19 19 19 19 19 19 18 18 18 17 17 17 17 17 18 18 18 18 18 19 20 20 21 21 22 24 30 35 39 42 43 43 44 46 46 47 48 49
18 17 16 15 14 15 16 18 19 18 16 14 12 11 10 9 9 8 8 8 9 9 10 11 12 14 17 20 23 26 26 27 26 25 27 29 30 30 27 24 20 17 16 15 14 14 14 18 18 17 17 15 13 13 15 17 18 18 18 18 17 18 18 19 20 20 20 20 19 19 19 19 18 18 18 18 18 18 18 19 19 20 21 21 21 22 22 22 23 23 24 29 33 36 39 41 43 45 48 48 48 49 51
17 17 16 15 14 15 17 19 19 18 16 13 10 9 8 8 7 7 7 8 8 9 10 11 13 15 16 19 23 25 26 28 29 31 35 35 34 34 35 35 30 23 16 15 14 14 16 17 16 15 14 14 14 15 17 18 18 18 18 18 18 19 20 20 21 21 20 20 20 20 19 19 19 19 19 18 19 19 19 20 21 22 22 23 23 24 24 24 24 24 24 26 29 31 33 35 39 44 48 49 50 52 53
17 16 14 14 14 16 18 18 18 16 13 10 8 7 6 7 7 7 8 8 9 10 11 13 14 15 15 16 19 21 24 27 30 34 39 37 32 30 34 40 33 24 20 18 16 14 14 14 14 14 15 16 16 17 17 18 18 18 18 18 19 20 20 21 21 21 21 21 20 20 20 20 20 19 19 19 20 20 21 22 22 23 24 24 25 25 25 26 26 25 25 25 25 26 27 31 35 40 47 50 51 52 54
16 14 12 12 13 15 17 17 16 14 12 8 6 5 6 6 7 8 9 9 10 11 12 13 14 14 14 14 15 18 21 24 29 34 38 34 31 30 34 33 29 25 25 22 20 18 15 16 17 18 19 18 17 17 17 17 17 18 18 19 20 20 21 21 21 21 21 21 21 21 21 21 21 21 21 21 22 22 23 23 24 24 25 25 25 26 26 26 26 26 26 25 25 24 24 28 33 39 46 49 51 53 54
15 13 11 10 11 13 14 15 14 13 11 8 6 5 6 7 8 9 9 10 10 11 12 13 13 14 14 15 16 17 19 22 26 31 36 33 32 32 37 35 33 35 40 30 23 18 19 20 21 21 19 17 17 17 17 17 18 18 19 20 20 20 20 20 21 21 22 22 22 22 22 22 22 22 22 23 23 24 24 24 25 25 26 26 26 27 27 27 27 27 27 26 26 25 25 27 32 39 47 49 51 53 54
14 12 10 9 9 9 11 13 12 11 10 8 7 6 7 9 10 10 10 10 10 11 11 12 13 15 18 21 21 21 20 20 23 28 33 33 32 32 38 42 42 42 44 37 27 21 21 23 24 22 18 16 16 17 17 18 19 19 20 20 20 20 20 21 21 22 22 23 23 23 23 23 23 24 24 25 25 25 25 25 26 26 26 27 27 28 28 28 28 28 28 27 27 26 26 27 33 40 47 50 52 54 54
13 11 9 8 7 7 9 10 10 10 10 9 8 8 9 10 10 11 10 10 10 11 11 13 14 16 19 24 26 26 24 21 22 26 31 33 33 33 34 36 34 30 26 25 25 25 26 28 28 24 17 16 16 17 18 19 19 20 20 20 20 20 21 21 22 23 23 24 24 24 24 24 25 25 26 26 26 26 26 26 27 27 27 28 28 29 29 29 29 29 29 28 28 28 27 28 34 42 49 51 52 54 57
11 10 8 7 6 6 6 7 8 9 9 9 9 9 10 11 11 11 10 10 11 11 12 13 15 17 19 23 26 28 27 25 24 25 29 31 32 32 33 33 33 32 30 29 29 30 30 30 28 24 19 18 18 18 18 19 20 20 20 20 21 21 22 22 23 24 24 24 25 25 25 26 26 26 26 27 27 27 27 28 28 28 29 29 29 30 30 30 30 30 29 29 29 29 28 30 37 45 50 51 53 56 60
10 8 7 6 5 5 5 6 7 8 9 10 10 11 11 11 11 11 11 11 12 13 13 14 15 17 20 22 25 27 29 31 31 29 29 31 32 32 32 33 33 32 30 32 34 35 37 35 32 28 24 22 20 19 19 20 20 20 20 21 21 22 22 23 24 25 25 25 26 26 26 26 27 27 27 27 28 28 28 29 29 29 30 30 30 31 31 31 30 30 29 29 29 28 28 31 38 47 51 53 56 59 61
9 8 6 6 5 5 5 6 7 8 9 10 11 11 11 11 12 12 12 12 13 13 14 15 16 18 20 22 24 27 30 34 35 35 32 31 32 33 33 33 32 32 32 32 32 33 38 40 37 33 31 26 23 22 21 21 21 21 21 21 22 22 23 24 25 26 26 26 26 27 27 27 27 27 28 28 29 29 30 30 30 30 31 31 31 32 32 31 31 30 29 29 28 28 28 33 41 50 53 57 59 61 61
8 7 6 6 6 6 6 7 8 9 10 11 11 12 12 12 12 12 12 13 13 14 15 16 18 19 20 22 24 27 31 34 36 36 36 35 35 35 34 33 33 33 32 31 31 31 32 36 37 37 36 33 30 26 24 22 21 21 21 22 22 23 25 26 26 26 27 27 27 27 28 28 28 28 29 29 30 30 31 31 31 31 32 32 32 32 32 31 31 30 29 29 29 29 30 38 47 53 57 59 60 60 59
7 7 7 7 7 8 8 8 8 9 10 11 12 12 13 13 13 13 13 13 14 14 16 17 18 19 21 23 24 27 30 33 34 36 37 37 37 36 35 34 34 34 33 33 32 32 32 32 32 34 37 40 37 32 27 25 23 22 22 23 24 25 26 27 27 27 27 27 27 28 28 28 29 29 30 30 31 31 32 32 32 32 33 33 33 33 32 32 31 30 30 30 30 31 34 44 52 57 59 60 59 58 57
Wind_Speed
5 5 5 5 5 4 2 1 2 2 2 2 2 2 2 3 3 3 3 4 4 5 5 6 6 5 4 4 5 6 6 7 8 8 9 9 9 9 9 10 10 9 9 10 10 11 11 12 13 14 16 17 17 17 16 14 13 12 12 11 11 11 11 11 11 11 11 11 11 11 12 12 12 12 13 13 13 14 15 15 15 16 16 16 15 15 15 14 14 14 14 14 14 14 15 15 16 16 16 16 16 16 17
6 5 4 4 4 3 1 1 1 2 3 3 3 3 3 3 3 3 4 5 5 6 6 6 6 6 5 5 6 7 8 9 9 9 9 9 10 10 10 10 11 10 10 10 11 11 12 13 14 15 16 17 18 18 17 16 14 14 13 12 12 12 12 11 12 12 12 13 12 12 12 13 13 13 13 13 14 14 14 15 15 15 15 15 15 14 14 14 14 14 14 14 14 14 15 15 16 16 17 17 17 17 17
5 4 4 3 3 2 1 1 2 2 3 3 3 3 3 3 3 4 5 5 6 7 7 7 7 7 7 7 7 8 9 10 10 10 10 10 10 10 10 11 11 11 10 10 11 11 12 13 14 15 16 17 18 18 17 17 16 15 14 14 13 13 13 12 12 12 13 14 14 13 13 13 13 13 14 14 14 14 14 14 15 15 15 15 15 15 15 15 15 15 15 15 15 15 15 16 16 16 17 17 18 18 18
4 4 4 4 3 2 2 2 2 3 3 3 3 3 3 3 4 4 5 6 6 7 8 8 8 8 8 8 9 10 10 11 11 11 11 11 11 11 11 11 11 11 11 11 11 12 13 13 14 15 16 17 17 18 18 17 17 16 16 15 15 14 14 13 13 13 13 14 14 15 14 14 14 14 14 15 15 15 14 14 14 15 15 15 15 15 16 16 16 16 16 16 16 16 16 16 16 17 17 18 19 19 19
4 5 5 5 4 3 3 4 4 4 4 4 4 4 4 4 4 5 6 6 7 8 8 9 9 9 9 10 10 11 11 12 12 12 11 11 11 11 11 11 11 12 12 12 13 13 14 15 15 16 16 17 17 17 17 17 17 17 17 16 16 16 15 14 13 13 13 14 14 15 15 15 15 15 15 15 15 15 15 14 14 14 15 15 16 16 17 17 17 17 17 17 17 17 17 17 17 17 18 18 19 19 20
4 5 6 5 4 4 4 5 5 5 5 4 4 4 4 5 5 6 7 7 8 9 9 10 10 10 11 12 12 12 12 12 12 12 12 12 12 12 12 12 12 12 13 14 14 14 15 15 16 16 16 16 16 16 16 16 17 17 17 17 17 16 16 15 14 12 12 12 13 14 14 15 15 15 15 15 15 15 15 14 14 14 15 15 16 16 17 17 17 17 17 17 17 17 17 17 18 18 18 18 19 19 20
4 5 5 5 4 5 5 6 6 6 6 5 5 5 6 6 7 7 8 9 10 10 11 11 12 12 12 13 13 13 13 13 13 12 12 12 12 12 12 12 13 13 14 14 14 14 15 15 15 15 15 15 15 15 15 16 16 16 17 17 17 16 16 15 14 12 11 11 11 12 13 14 14 15 15 15 15 15 15 15 15 15 15 16 16 16 16 17 17 17 17 17 17 17 17 17 18 18 19 19 19 19 20
4 4 4 4 5 5 5 6 7 7 7 7 6 6 7 7 8 9 10 10 11 11 12 12 12 12 13 13 13 13 13 13 13 13 12 12 12 12 12 13 13 13 14 14 14 13 13 13 14 13 13 13 14 14 14 15 15 16 16 16 16 16 15 15 14 13 12 12 11 11 12 12 13 13 14 14 15 15 15 15 15 15 16 16 16 16 16 16 17 17 17 17 17 17 17 17 17 18 19 20 20 20 20
4 4 4 4 5 5 6 7 7 7 7 7 7 7 7 8 9 10 10 11 11 12 12 12 12 12 13 13 13 13 12 12 12 12 12 11 11 11 12 12 12 12 12 12 12 11 11 12 12 12 12 12 13 13 14 14 14 15 15 15 14 14 14 14 14 13 12 12 12 11 11 11 11 12 12 13 14 14 14 14 14 15 16 16 16 16 16 16 17 17 18 18 18 18 18 17 18 18 19 19 20 21 21
6 6 5 5 6 6 7 7 8 8 8 8 8 8 8 8 9 10 10 11 11 11 11 11 11 11 11 11 11 11 10 10 10 10 10 10 10 10 10 10 10 10 10 10 10 10 10 10 11 11 12 12 13 13 13 13 14 13 13 13 13 13 12 12 12 12 12 12 12 12 12 11 11 11 11 12 12 12 12 13 14 15 15 15 15 15 16 16 17 18 18 18 18 19 19 18 18 18 18 19 20 20 21
7 7 6 6 6 7 7 7 8 8 8 8 8 8 9 9 9 10 10 10 10 10 10 10 9 9 9 9 9 9 9 9 9 9 10 10 10 10 10 9 9 9 9 8 8 9 9 10 10 11 12 12 13 13 13 13 13 13 13 12 12 12 12 11 11 11 11 11 12 12 12 11 11 11 12 12 12 13 13 14 14 14 15 15 15 15 16 17 17 18 18 18 18 18 19 19 19 19 19 19 20 20 21
6 7 6 6 6 6 7 7 7 7 8 8 8 8 9 9 9 9 9 9 9 9 8 8 8 8 8 8 8 8 9 9 9 9 10 10 10 10 9 9 8 8 8 8 8 8 9 10 11 11 12 12 13 13 13 13 13 13 13 13 13 12 12 12 12 11 11 11 11 12 12 12 12 12 13 13 14 14 15 15 15 15 15 15 16 16 16 17 17 18 18 18 18 19 19 19 19 19 20 20 20 20 21
5 5 5 5 5 6 6 6 6 7 7 7 7 7 8 7 7 7 7 7 8 7 7 7 7 7 8 8 8 9 9 9 9 10 10 10 10 9 9 8 8 8 8 8 9 9 10 11 11 12 12 12 13 13 13 14 14 14 14 14 14 14 14 14 13 12 12 12 12 12 13 13 13 13 14 14 15 15 16 15 16 16 16 16 16 16 17 17 17 17 17 18 18 18 19 19 19 20 20 20 20 21 21
4 4 4 5 5 5 5 5 5 6 6 6 6 6 6 6 6 7 7 7 7 7 6 7 7 7 8 8 9 9 9 9 10 10 10 10 9 9 9 9 9 9 9 9 10 11 11 12 12 12 13 13 13 14 14 14 15 15 15 15 15 15 15 15 14 13 12 12 12 13 13 13 14 15 15 15 16 16 16 16 16 17 17 17 17 17 17 18 18 18 17 18 17 17 17 19 19 20 21 21 21 21 21
4 4 5 5 5 5 5 5 5 5 5 5 5 6 6 6 6 7 7 7 7 7 6 7 7 8 9 9 9 9 10 10 10 10 10 10 10 10 10 10 10 10 10 10 11 11 12 12 13 13 13 14 14 14 14 15 15 16 16 16 16 16 16 15 14 13 12 12 13 13 14 14 14 15 15 15 15 15 16 16 16 16 17 16 16 16 17 17 17 18 18 18 17 16 16 18 20 20 20 21 21 22 22
4 4 5 5 5 4 4 4 4 5 5 5 5 6 6 6 7 7 7 7 7 6 6 7 8 9 9 9 10 10 10 10 10 10 10 10 10 10 10 10 10 10 10 11 11 12 12 13 13 13 14 14 14 15 15 16 16 16 17 17 17 17 17 15 14 12 12 12 13 14 14 14 15 15 15 15 15 15 15 15 15 16 16 16 16 17 17 16 16 16 17 17 17 17 18 19 20 20 20 21 21 22 22
4 4 4 4 4 4 4 4 4 4 5 5 6 6 6 7 7 7 7 7 6 6 7 8 8 9 9 10 10 10 10 10 10 10 10 10 10 10 10 10 10 10 10 11 11 12 12 13 13 14 14 15 15 16 16 17 17 17 17 17 17 17 17 15 14 13 13 13 13 14 14 15 15 15 15 15 15 15 15 15 15 15 15 15 16 17 17 17 17 17 17 17 17 18 19 20 20 20 20 21 21 21 22
3 3 4 4 4 4 4 4 4 5 5 5 6 6 6 7 7 7 7 6 6 6 7 8 8 9 9 10 10 10 10 10 10 10 10 11 11 11 10 10 10 10 11 11 12 12 13 14 14 15 15 16 16 17 17 18 18 18 18 18 18 18 18 16 15 14 14 14 14 14 15 15 15 15 15 15 15 15 15 15 15 15 15 15 15 15 16 16 17 18 17 17 17 18 19 19 20 20 20 21 21 21 21
3 3 3 3 4 4 4 4 5 5 5 5 5 6 6 7 7 6 6 6 6 6 7 8 8 9 9 10 10 10 10 10 10 10 10 10 10 11 11 11 11 11 11 12 12 13 14 14 14 15 15 16 16 17 17 18 18 18 19 19 19 19 18 17 16 15 15 15 15 15 16 15 15 15 15 15 16 16 16 15 15 15 15 15 15 15 15 16 16 17 17 17 17 17 18 18 19 19 20 21 21 21 21
3 3 3 3 4 4 4 5 5 5 5 5 5 6 6 6 6 6 6 6 6 6 7 7 8 8 9 9 9 9 9 9 9 10 10 10 10 10 10 10 11 11 11 12 12 13 13 14 14 14 15 15 16 16 16 17 17 17 18 18 18 18 18 18 17 17 16 16 16 16 16 16 16 16 16 16 16 16 16 16 15 15 15 15 15 15 15 16 16 17 17 17 17 17 17 18 18 19 19 20 21 21 20
3 4 4 4 4 4 5 5 5 5 4 4 5 5 6 6 6 6 6 6 6 7 7 7 7 8 8 8 8 8 8 8 9 9 9 9 9 9 9 10 10 10 11 11 11 12 12 13 13 14 14 14 15 15 15 15 16 16 16 16 16 16 16 16 16 17 17 16 17 17 17 17 17 17 17 17 17 17 16 16 16 16 15 15 15 15 15 16 16 17 17 17 17 18 18 18 18 18 18 19 19 20 20
4 4 4 5 5 5 5 6 6 5 5 4 4 5 6 6 7 7 7 7 7 7 7 7 7 7 8 8 8 8 8 8 9 9 9 9 9 9 9 9 9 9 10 10 10 11 11 12 12 13 13 14 14 14 14 14 14 14 14 14 14 14 14 14 14 15 16 16 16 16 16 17 17 17 17 18 18 18 18 17 17 16 16 16 15 15 16 16 16 17 17 17 17 18 18 18 18 17 17 18 18 19 19
4 5 5 6 6 6 6 6 6 6 5 4 5 5 6 6 7 7 8 9 9 9 8 8 7 7 7 8 8 8 8 8 9 9 9 9 9 9 8 8 8 9 9 9 10 10 11 11 12 12 13 13 13 13 13 13 13 13 12 12 12 12 12 12 13 13 14 15 15 15 16 16 16 16 17 17 18 18 19 18 18 18 17 17 16 16 16 17 17 17 17 17 17 17 18 18 17 17 17 17 18 18 18
5 6 6 6 6 6 6 6 6 6 5 5 5 5 5 6 7 8 8 9 9 9 8 7 7 7 7 8 7 7 7 7 8 8 9 8 8 8 8 8 8 8 9 9 9 10 11 11 12 12 13 13 13 13 13 13 13 13 12 12 12 11 11 11 11 12 12 13 14 15 15 15 15 16 16 16 17 18 18 19 19 19 18 17 17 16 17 17 18 18 18 17 17 17 18 18 18 17 17 17 17 18 18
5 6 5 5 6 6 6 6 6 5 5 5 5 4 5 5 6 7 7 8 9 8 8 7 7 7 7 7 6 6 6 6 7 7 8 8 7 7 7 7 8 8 9 9 10 11 11 12 12 13 13 13 13 13 13 14 14 14 13 13 12 11 11 11 11 11 11 12 13 14 15 15 15 15 15 15 16 16 17 18 19 19 19 18 18 17 17 18 19 19 18 18 17 17 17 17 18 18 17 17 17 18 19
4 4 4 4 5 5 5 6 5 5 4 4 4 3 3 4 5 5 6 7 7 7 7 7 7 7 6 6 5 5 5 6 6 7 7 7 7 8 8 8 9 9 10 11 11 12 12 13 13 14 14 14 14 14 14 15 15 15 15 14 13 12 12 11 11 11 12 12 13 14 14 14 14 15 15 15 15 16 16 17 18 19 19 19 18 18 18 18 18 17 17 16 15 15 15 15 16 16 16 16 17 18 19
3 3 3 3 4 4 5 5 4 3 3 3 2 2 2 3 4 5 5 5 5 4 4 5 5 5 5 5 5 5 5 6 7 7 7 8 9 9 10 10 10 11 11 12 12 13 13 13 14 14 15 15 15 15 15 16 15 15 15 14 14 13 12 12 12 11 11 11 12 13 14 14 15 15 15 15 15 15 15 16 16 17 18 18 17 17 16 15 15 14 15 14 15 14 14 13 13 13 15 16 16 17 17
2 2 2 3 3 4 3 3 2 2 2 1 0 1 2 2 3 3 3 3 3 3 3 3 4 4 4 5 5 5 5 6 7 8 9 10 11 11 12 12 12 12 13 13 13 14 14 14 15 15 15 16 16 16 16 16 15 14 14 13 12 12 12 11 11 10 10 11 12 13 14 14 15 15 15 15 14 14 14 13 14 14 15 14 14 14 14 14 15 15 16 17 18 17 15 13 12 13 15 16 15 16 16
2 1 1 2 2 2 3 2 3 3 2 1 1 0 0 1 2 2 2 3 3 3 4 4 4 4 4 5 5 6 7 8 9 10 11 11 12 13 13 13 14 14 14 14 14 15 15 15 15 16 16 16 16 15 15 14 14 13 12 12 11 11 10 10 10 9 9 10 11 13 13 14 14 15 15 15 14 13 13 13 12 13 13 12 13 13 14 13 13 15 17 19 19 19 17 16 15 15 15 15 14 15 15
1 0 1 0 1 2 4 4 4 4 4 3 3 3 3 3 3 3 4 4 4 4 4 4 5 5 6 7 7 8 9 10 11 11 12 13 13 14 14 14 14 14 15 15 15 15 15 16 16 16 16 15 15 14 14 13 12 12 11 11 10 10 10 9 9 9 9 9 11 12 13 13 14 14 14 15 15 15 15 14 13 13 13 14 13 13 13 13 13 14 15 15 15 15 16 15 14 14 14 14 14 14 15
1 2 2 2 2 3 5 5 5 5 4 4 4 4 4 4 4 4 5 5 4 4 5 5 6 7 8 9 9 10 11 12 12 13 13 14 14 15 15 15 15 15 15 15 15 15 15 16 16 15 15 14 14 13 13 12 11 11 11 11 10 10 10 10 10 10 9 10 11 12 12 13 13 14 15 15 15 15 15 15 14 13 14 15 15 14 14 15 15 15 14 13 13 13 13 14 14 14 14 15 16 16 16
2 3 3 3 4 5 5 5 4 4 3 4 4 4 4 4 4 4 4 5 5 6 6 7 8 9 9 10 11 11 12 13 13 14 14 14 15 15 15 15 15 15 15 15 15 15 15 15 15 15 14 14 13 12 12 11 11 11 11 11 11 10 10 11 11 11 11 11 12 12 13 13 14 14 15 16 16 15 15 15 16 16 15 16 16 15 16 16 16 15 15 14 14 14 14 15 15 15 16 17 17 18 17
2 3 3 4 4 4 4 4 4 3 3 3 3 3 3 3 3 4 4 5 6 7 8 8 9 10 10 11 11 12 12 13 14 14 14 14 14 14 14 14 14 14 14 15 15 15 15 15 14 14 13 13 12 12 11 11 11 12 12 12 12 11 11 12 12 13 13 13 13 13 14 14 14 15 15 16 16 15 15 15 16 17 17 16 16 16 16 16 16 16 16 16 16 16 16 16 16 17 18 18 19 19 19
3 3 3 4 4 4 3 3 3 3 3 3 3 3 3 4 4 4 5 6 7 7 8 9 10 10 10 11 11 12 12 13 13 13 13 13 13 14 14 14 14 14 14 15 15 15 15 14 14 13 13 12 11 11 11 11 12 13 13 13 13 12 12 12 13 14 14 14 15 15 15 15 15 15 15 16 16 16 15 16 16 17 17 16 17 17 17 17 17 17 17 17 17 17 18 18 18 19 19 19 19 20 20
3 2 2 2 2 3 3 3 3 3 3 3 3 3 4 4 5 5 6 7 7 8 9 10 10 10 11 11 11 12 12 12 13 12 12 13 13 14 14 14 15 15 15 15 15 15 15 14 14 13 12 12 11 11 11 12 14 14 14 14 13 13 13 13 14 15 16 16 16 16 16 16 16 16 16 16 16 16 16 16 16 16 16 17 17 17 17 17 17 17 18 18 18 19 19 19 20 20 20 19 20 20 20
2 2 1 1 1 1 2 2 2 2 2 3 3 4 5 5 6 7 7 8 8 9 10 10 11 11 11 12 12 12 12 12 13 13 13 14 15 15 15 16 16 16 16 16 16 15 14 14 14 13 12 12 11 11 12 13 15 15 15 15 14 14 13 14 14 15 16 17 17 17 17 17 17 17 17 17 17 16 16 16 16 16 16 17 17 17 18 18 18 19 19 19 19 20 20 20 21 20 20 20 20 20 20
3 3 3 2 2 1 2 2 2 2 2 3 4 5 6 6 7 8 9 10 10 10 11 11 12 12 12 12 12 13 13 13 14 15 15 16 16 16 17 17 17 17 17 16 16 15 14 13 13 13 13 12 12 12 12 14 15 16 16 15 14 14 14 15 16 16 17 18 18 18 18 18 18 18 18 18 18 17 17 17 17 17 17 17 18 18 18 19 19 20 20 20 20 20 21 21 21 21 21 21 21 21 20
4 4 3 3 2 2 2 1 2 2 2 3 4 5 7 8 8 9 10 11 11 11 11 12 11 11 12 12 13 13 14 15 16 17 17 17 17 18 18 18 18 18 17 16 15 14 13 13 13 13 13 12 12 12 13 14 15 16 16 16 15 15 15 16 17 17 18 19 19 19 19 19 19 19 19 19 19 18 18 18 18 18 19 19 18 19 19 20 20 20 20 21 21 21 21 21 21 21 21 21 21 21 21
5 4 3 3 2 2 1 1 2 2 3 4 5 6 7 8 9 10 11 11 11 11 11 12 11 11 12 12 13 14 15 16 16 17 18 18 18 18 18 18 18 17 17 16 14 13 12 13 13 13 13 13 12 12 13 14 15 16 16 16 15 15 16 17 18 19 19 20 20 20 20 20 20 20 20 20 20 19 19 19 20 20 20 20 20 20 20 20 20 20 21 21 21 21 21 21 21 21 21 21 21 21 21
4 4 3 2 2 2 2 2 2 2 3 4 5 6 7 9 9 10 11 11 10 11 11 12 12 12 13 13 14 14 15 16 16 17 18 18 18 19 18 18 18 17 16 14 13 12 12 13 13 14 13 13 12 12 13 14 16 17 17 16 15 15 16 17 19 20 20 21 21 21 21 21 21 22 22 21 21 21 20 21 21 22 22 21 21 21 21 21 21 21 21 21 21 21 21 21 21 21 21 21 21 21 21
3 3 2 2 2 2 2 2 2 2 3 4 5 6 8 9 10 10 10 10 10 10 11 11 12 14 15 14 15 15 16 16 17 17 18 18 19 19 19 18 17 16 14 13 12 11 12 13 14 14 14 13 12 12 13 15 17 18 17 16 16 16 17 18 19 20 21 22 22 22 22 22 22 22 23 22 22 22 22 23 23 24 23 22 22 21 21 21 21 21 21 21 21 21 21 21 21 21 21 21 21 21 21
3 3 3 3 3 3 2 2 2 2 3 4 6 7 8 10 10 10 10 10 10 10 11 12 13 14 14 15 15 15 16 17 17 18 19 19 19 19 19 18 17 15 13 12 11 11 12 13 14 14 13 13 12 12 13 16 18 18 17 16 16 16 17 19 20 21 22 22 22 22 22 23 23 23 23 23 23 23 24 24 25 25 25 24 23 22 22 21 21 21 21 21 20 20 21 21 21 21 21 21 21 21 21
4 3 3 3 4 3 3 3 3 3 4 5 6 8 9 9 10 9 9 9 10 11 12 13 13 14 14 15 16 16 17 18 18 19 19 19 19 19 19 18 16 15 13 12 11 12 12 14 14 13 13 12 12 13 14 17 19 19 18 17 16 17 18 19 20 21 22 22 22 23 23 23 23 24 24 24 24 25 25 26 26 26 26 25 24 23 23 22 21 21 21 21 20 21 21 21 21 21 21 21 21 21 21
4 4 4 5 5 5 5 5 5 5 5 6 7 8 8 9 9 9 9 9 10 11 12 13 13 14 14 15 16 17 18 18 19 19 19 20 20 20 19 18 16 14 13 12 12 12 13 14 14 13 12 12 12 14 16 19 20 19 18 17 17 18 19 20 21 22 22 22 22 23 23 24 24 24 25 25 25 26 26 27 27 27 27 26 25 25 24 23 22 22 21 21 21 21 21 21 22 22 22 22 22 22 22
5 6 6 6 6 6 6 6 7 7 7 6 7 7 8 8 8 9 9 10 10 11 12 13 13 14 14 15 16 16 17 17 18 19 19 20 20 20 19 18 16 14 13 13 13 12 13 14 13 12 11 11 12 15 18 20 20 19 17 16 17 18 19 20 21 22 22 22 23 23 23 24 25 25 26 26 27 27 28 28 28 28 28 27 27 26 25 24 23 23 22 22 22 22 22 22 23 23 23 23 23 23 23
7 7 7 7 7 7 7 7 7 7 7 7 7 7 8 8 9 9 9 10 11 11 12 12 13 13 14 14 15 15 16 16 17 18 19 20 20 19 19 17 15 13 13 13 13 13 13 13 12 11 10 11 13 16 19 20 20 18 17 16 17 19 20 21 21 22 22 22 23 23 24 24 25 26 26 27 28 29 29 30 30 29 29 28 28 27 26 25 25 24 24 23 23 23 23 24 24 24 24 24 24 24 24
7 7 7 7 6 7 7 7 7 8 8 8 8 8 9 9 9 9 10 11 11 12 12 13 13 13 14 14 14 15 16 16 17 18 19 19 19 18 17 17 15 12 11 13 13 13 13 12 11 10 10 11 13 17 19 20 18 16 16 16 18 19 20 21 21 21 22 22 22 23 24 24 25 26 26 27 28 29 30 30 30 30 29 29 29 28 28 27 27 26 26 25 24 24 25 25 25 25 25 25 25 24 24
7 7 7 6 6 6 7 7 7 8 8 8 9 9 10 9 10 10 11 11 12 12 13 13 13 14 14 14 15 15 16 16 17 18 18 19 19 17 15 15 14 12 11 12 13 13 12 11 10 9 9 11 14 18 19 18 15 14 14 16 18 19 20 20 21 21 21 22 22 23 24 24 25 26 27 27 28 29 30 30 30 30 30 29 29 29 28 28 28 28 27 27 26 25 26 26 26 26 25 25 24 24 24
7 7 7 6 6 6 7 7 7 8 8 9 9 9 9 9 9 10 10 11 11 12 12 12 13 14 15 15 15 15 16 16 17 17 17 16 16 16 16 15 13 11 10 12 12 12 11 9 7 7 9 12 16 19 18 14 12 12 14 16 18 19 20 20 20 20 21 21 22 23 24 24 25 26 27 28 28 29 29 29 29 29 29 29 29 29 29 29 29 29 28 28 27 26 26 26 26 25 25 24 24 24 24
7 7 7 6 6 7 7 7 7 8 8 9 9 9 9 8 9 9 10 10 11 11 12 12 12 13 14 15 15 15 15 16 16 16 15 14 12 10 10 11 11 10 9 11 11 9 8 6 5 7 10 15 19 19 14 11 10 12 14 16 18 19 19 19 19 20 21 21 22 23 23 24 25 26 27 28 28 28 28 28 28 28 28 29 29 29 29 29 29 29 29 29 28 27 27 26 25 25 24 24 24 23 24
7 7 7 7 7 7 7 7 7 8 8 8 8 8 8 9 9 10 10 11 11 11 12 12 12 12 12 13 13 14 14 15 16 15 12 12 11 8 5 6 6 8 10 11 9 6 4 3 4 8 14 20 20 16 11 9 10 12 15 16 17 18 18 19 19 20 21 22 22 23 24 24 25 26 27 28 28 27 27 27 27 27 27 28 28 29 29 29 29 30 30 30 29 29 28 26 25 24 24 24 24 24 24
7 7 7 7 7 7 7 7 8 8 8 7 7 8 8 9 10 10 11 11 11 11 11 12 12 12 11 12 12 12 13 14 15 14 13 13 13 12 9 5 4 4 4 7 6 3 1 1 6 13 20 22 18 12 9 9 11 13 15 16 17 17 17 18 19 20 21 22 22 23 24 25 26 27 27 27 27 26 26 26 26 26 27 27 28 28 28 29 29 30 31 31 30 29 28 26 25 24 24 24 24 24 24
7 7 7 7 7 7 7 7 8 8 8 8 8 8 9 9 10 11 11 11 11 11 11 11 11 12 11 11 12 12 13 14 13 13 14 14 13 11 8 4 3 3 3 3 4 3 2 4 11 18 21 19 14 10 9 10 13 15 16 16 16 16 17 18 19 20 21 22 23 23 25 26 26 26 26 26 26 25 25 26 26 26 27 27 28 28 28 29 29 30 31 30 30 29 27 26 25 24 24 24 24 24 24
7 7 7 8 8 7 7 8 8 8 9 9 9 9 9 9 10 10 10 11 11 11 11 11 10 11 13 13 13 13 13 13 13 12 12 14 14 9 4 2 1 2 0 1 2 3 3 4 11 18 20 14 10 9 10 13 14 15 15 15 16 17 18 19 19 20 21 22 23 24 25 26 26 26 25 25 25 25 25 26 26 26 27 27 27 28 28 29 29 30 30 30 29 28 26 26 25 24 24 24 24 24 23
8 8 8 8 7 7 8 8 8 8 8 8 8 8 9 9 10 10 11 11 11 11 11 11 11 11 13 13 13 13 13 12 12 11 11 12 14 11 4 2 3 2 1 1 1 1 4 7 12 17 15 10 9 11 13 14 15 15 15 16 17 18 19 19 20 21 21 22 23 25 26 26 26 25 25 24 25 25 25 26 26 26 27 27 27 28 28 28 29 29 29 28 27 27 26 26 25 24 24 24 24 23 23
8 7 7 7 7 7 7 7 7 8 8 8 8 8 9 9 9 10 10 10 11 11 11 12 11 11 11 11 12 12 12 12 12 11 9 10 11 12 9 5 3 3 4 3 2 2 2 9 8 6 8 10 12 14 15 15 14 14 15 16 17 19 19 20 20 21 22 24 25 25 25 25 25 24 24 24 25 25 26 26 26 27 27 27 28 28 28 28 28 28 27 27 26 26 26 26 25 24 23 23 23 22 22
7 7 7 7 7 7 7 7 7 7 7 8 8 8 8 8 9 9 10 10 11 11 11 11 11 11 11 11 11 12 12 13 13 11 9 8 9 11 10 8 4 1 1 2 2 4 7 11 8 4 8 13 14 13 14 14 15 15 16 17 18 19 19 20 21 22 23 25 25 25 25 24 23 24 24 25 25 26 26 26 26 27 27 28 28 28 28 28 27 27 26 26 25 26 26 25 24 23 22 22 22 22 21
6 6 6 6 6 6 6 7 7 7 7 7 7 7 7 7 8 9 10 10 11 11 10 10 11 11 11 11 11 12 13 13 14 14 10 7 8 10 10 8 6 4 3 3 4 5 5 4 3 3 7 11 13 13 12 13 15 17 17 18 19 19 20 21 22 24 25 25 25 24 24 23 23 24 25 25 26 26 26 26 27 27 28 28 28 28 28 27 27 26 26 26 26 25 25 24 22 21 21 21 21 21 21
5 5 5 5 5 6 6 6 6 6 7 7 7 6 7 8 9 9 9 10 10 10 10 10 11 11 11 12 12 13 13 13 13 14 13 8 8 10 10 9 7 6 6 7 8 8 6 3 2 3 5 8 12 16 16 14 14 16 18 19 19 19 20 22 23 24 25 24 24 23 23 24 24 24 25 25 26 26 26 27 27 28 28 28 28 28 27 27 27 26 26 25 25 24 23 22 21 20 20 20 20 21 22
4 4 4 4 5 5 6 6 6 6 6 6 6 7 7 8 8 8 8 9 9 9 10 10 10 11 11 12 13 13 13 13 13 14 13 9 9 11 11 10 9 8 7 8 9 10 9 6 5 3 3 5 8 11 15 17 17 17 18 19 19 20 22 23 23 24 23 23 22 22 23 24 25 25 25 25 25 26 27 28 28 28 28 28 28 27 27 27 26 26 25 25 24 23 22 20 19 19 19 19 20 21 22
3 3 3 4 4 4 5 5 5 6 6 7 7 7 7 7 7 7 8 8 9 9 10 10 10 11 11 11 12 13 14 13 13 14 13 11 10 11 12 11 10 9 8 8 9 9 10 10 10 8 5 3 4 7 10 14 17 19 19 19 20 21 23 23 22 22 21 21 22 22 23 24 25 25 24 25 26 27 27 28 28 28 28 28 27 27 27 26 26 25 24 23 23 22 21 19 18 18 19 19 20 22 23
Wind_Direction
182 187 197 202 205 210 218 251 278 288 300 310 306 293 285 286 293 297 297 300 307 315 322 324 323 319 318 320 319 315 311 313 314 315 313 311 309 307 305 303 302 302 302 303 302 301 300 300 299 300 303 307 310 312 316 318 319 319 317 314 311 306 301 294 285 278 274 277 283 288 290 291 290 287 283 279 275 270 265 264 265 264 262 260 264 268 267 272 278 282 280 275 271 268 268 267 265 264 264 262 263 265 267
190 197 207 207 210 217 232 279 283 283 292 294 289 282 279 286 295 300 299 301 307 315 321 325 327 325 321 319 316 313 312 311 312 311 309 308 305 303 301 300 300 299 298 301 302 300 300 300 299 301 303 305 307 310 313 317 318 318 316 314 312 309 306 300 292 283 276 276 279 285 288 289 289 287 284 281 278 274 269 263 262 263 264 259 260 266 271 277 280 283 285 280 273 268 267 267 266 266 265 263 262 264 267
191 213 229 230 231 240 263 281 281 278 281 282 280 278 278 282 289 296 298 302 307 312 316 321 325 325 321 317 313 310 309 309 309 310 309 308 306 304 303 301 299 297 296 298 300 299 298 298 299 300 301 303 305 308 312 315 317 317 316 315 313 312 310 305 298 289 282 277 278 282 285 286 286 285 285 284 281 278 273 267 265 264 261 262 263 267 274 279 281 282 285 283 278 273 269 267 267 268 266 264 263 263 266
193 218 237 248 254 258 264 275 281 280 276 275 275 275 277 280 286 291 296 301 304 306 309 313 316 316 313 312 308 305 305 306 307 307 308 307 306 304 303 301 299 297 294 293 293 294 295 295 296 298 301 304 307 310 313 316 317 317 317 317 317 316 315 311 305 296 288 281 279 279 281 282 283 283 285 286 287 285 281 274 268 265 262 265 268 272 277 279 280 282 283 283 283 280 274 270 268 268 266 266 264 264 265
207 221 235 249 257 265 275 287 292 292 287 280 278 280 281 283 288 295 298 298 297 298 302 305 306 306 305 305 303 302 302 303 304 305 305 304 303 302 302 301 300 297 294 291 289 289 291 293 296 300 303 307 310 313 316 318 319 320 320 321 322 322 321 319 313 305 295 286 281 279 279 280 281 282 284 286 288 290 289 284 276 270 266 265 268 273 278 279 280 281 281 281 281 280 278 275 272 269 268 267 266 265 265
217 228 237 246 256 267 280 290 295 296 297 290 286 286 288 291 293 295 296 296 295 296 298 301 301 300 301 301 301 302 303 303 303 303 304 302 302 301 301 299 297 296 294 293 292 292 293 296 299 303 306 310 313 317 320 323 323 324 325 326 326 327 327 326 322 315 306 298 290 285 283 282 281 281 282 283 285 288 291 290 285 279 274 271 270 272 275 278 279 280 280 281 280 278 278 277 276 274 272 270 268 267 266
227 237 241 247 256 268 280 288 292 295 298 299 297 293 293 296 298 297 295 295 295 296 298 299 300 300 301 302 303 303 303 303 303 303 302 300 300 299 298 296 295 294 294 295 297 298 299 300 303 306 310 313 317 322 326 328 330 331 332 331 331 332 332 332 329 323 316 308 301 296 292 288 285 284 283 284 285 287 289 289 288 285 280 276 274 274 275 277 278 279 279 280 279 278 277 277 276 275 275 273 271 270 269
245 250 255 253 261 275 283 289 288 289 297 301 302 299 297 298 298 296 295 296 297 298 300 300 301 302 302 301 301 301 302 303 304 303 302 301 300 299 297 297 297 298 299 302 305 307 307 307 308 311 316 320 324 328 332 334 336 338 338 337 337 337 338 339 337 331 321 312 308 306 302 296 292 290 288 286 286 287 287 287 286 285 282 279 278 278 278 279 280 281 281 281 280 278 277 277 276 276 275 275 274 272 271
266 270 273 266 270 278 280 284 287 291 295 298 299 299 299 298 296 295 296 298 301 302 302 302 302 302 301 301 302 302 304 305 306 307 307 308 307 306 306 306 308 310 312 315 317 318 317 314 315 318 323 327 330 332 335 337 339 341 341 340 341 342 343 344 342 334 322 315 314 313 307 304 300 296 293 289 287 287 286 285 284 282 281 280 280 281 281 282 283 283 283 283 283 281 279 277 276 275 275 276 276 274 272
270 273 277 277 278 280 283 286 289 293 296 298 297 297 298 297 298 300 301 303 304 305 305 306 305 306 307 308 310 312 314 316 317 318 318 319 320 321 323 324 326 328 329 330 329 327 324 320 321 324 328 329 331 332 333 335 338 340 340 340 341 342 343 342 340 333 324 318 314 311 308 306 303 299 295 292 290 289 288 287 285 284 283 283 283 283 283 284 285 285 285 285 285 284 283 281 279 277 276 275 276 275 274
266 270 274 278 283 288 292 295 298 300 302 301 301 300 301 303 306 308 309 310 311 312 313 315 317 320 325 327 328 329 330 331 332 332 332 332 333 335 338 340 342 342 340 337 333 329 326 324 325 327 329 329 330 330 331 332 334 336 337 338 338 338 337 335 332 329 324 319 315 313 310 309 306 301 297 294 292 291 290 289 288 286 285 284 284 284 285 286 287 287 287 286 285 284 282 280 279 278 277 276 275 274 274
262 269 275 281 287 293 299 304 307 309 309 309 308 309 311 314 317 319 321 322 325 326 329 331 335 340 342 343 343 342 340 340 340 340 340 341 343 344 346 347 347 345 341 335 329 326 325 325 326 328 329 329 329 330 330 331 332 333 334 335 335 334 333 331 328 325 322 319 315 312 309 308 305 301 298 295 293 290 287 285 284 283 282 280 280 281 281 283 285 286 287 287 286 284 282 279 277 276 276 275 275 274 273
260 270 278 285 292 299 306 312 315 316 316 317 318 321 323 325 327 330 333 335 338 341 343 347 349 350 349 348 346 345 343 342 343 343 343 344 344 345 345 344 343 338 332 326 323 323 324 325 326 326 326 328 329 329 331 331 332 332 334 335 335 334 333 331 328 326 324 319 313 308 303 300 298 297 296 294 290 287 285 284 283 281 278 276 275 276 277 278 280 281 282 282 283 283 284 284 283 280 276 274 272 272 273
263 274 284 292 300 308 316 322 324 323 322 323 325 328 331 333 336 338 341 344 347 351 353 354 353 352 350 348 347 345 344 343 343 343 343 342 341 340 339 337 334 329 324 320 320 321 323 323 323 323 324 326 327 329 330 330 331 332 334 335 335 334 333 330 327 325 323 319 313 307 303 300 298 297 298 296 294 292 291 290 288 286 283 280 279 279 279 279 279 279 279 278 278 281 284 285 285 284 283 280 277 275 273
273 283 293 301 310 319 327 331 330 328 327 327 330 332 336 337 338 340 344 348 352 355 358 356 354 352 350 349 348 346 345 345 345 343 342 340 338 336 334 333 330 326 322 321 321 322 322 322 321 321 322 324 326 329 330 331 332 333 334 335 335 334 332 328 323 320 318 315 311 307 306 305 304 302 302 301 300 300 299 297 295 293 292 289 287 284 282 282 282 283 283 283 284 285 286 285 284 285 288 289 288 284 279
284 293 301 308 318 328 334 335 333 329 327 328 331 333 334 335 337 341 345 350 355 358 360 357 355 354 353 351 350 348 348 347 346 345 343 341 339 338 336 334 332 330 327 326 327 326 326 325 323 324 325 327 328 330 332 332 333 334 336 336 336 334 332 326 321 318 317 313 309 307 307 308 308 309 309 309 308 307 305 303 301 299 298 298 295 292 290 289 288 288 289 291 293 295 295 293 295 296 295 294 292 289 286
293 300 307 315 325 334 338 335 329 324 324 327 330 332 334 335 339 344 350 354 358 1 1 359 358 356 355 354 352 351 350 349 349 347 346 345 343 342 341 340 338 336 334 335 335 335 334 333 331 330 331 331 332 333 334 333 334 334 335 335 334 333 331 324 319 318 318 314 310 309 309 310 311 313 313 313 313 311 309 307 305 303 301 300 299 299 299 300 297 294 293 295 297 299 299 299 301 301 298 295 292 289 288
301 308 317 327 335 341 338 331 325 321 322 326 330 334 338 340 344 351 357 1 3 5 3 1 360 358 357 355 354 352 351 350 349 348 348 347 346 345 344 344 342 341 342 342 343 343 343 341 339 337 336 335 335 335 335 334 333 333 333 332 330 329 327 321 315 313 316 313 310 309 309 310 312 312 313 313 312 311 310 309 308 306 304 301 300 299 299 300 299 297 298 298 298 298 298 298 298 297 296 294 291 289 288
308 322 333 341 344 343 337 329 324 321 322 328 335 341 344 349 353 359 4 8 8 7 4 2 0 358 356 354 352 352 351 349 348 347 345 344 344 344 345 345 345 345 347 347 348 348 347 346 344 342 340 339 339 338 337 335 334 333 331 330 328 325 322 317 313 310 313 311 310 309 308 309 310 310 310 309 309 308 308 308 307 306 304 303 301 299 297 297 297 298 298 298 296 295 295 294 293 293 293 294 293 292 291
318 332 341 344 344 340 335 330 325 322 323 331 342 349 353 357 0 3 5 6 5 4 1 359 356 353 352 350 349 348 347 345 343 341 340 340 342 344 345 347 349 350 351 352 352 351 351 350 348 347 345 344 342 341 339 337 335 334 332 331 329 327 323 317 312 310 311 310 309 309 309 310 310 309 307 306 305 304 304 304 304 303 302 301 300 299 297 297 296 296 296 295 294 293 292 291 290 290 292 294 296 296 296
321 329 333 335 335 334 331 328 324 321 324 332 344 352 358 0 1 360 359 357 355 355 353 350 348 345 343 342 343 343 342 339 337 334 333 335 338 342 345 348 350 352 354 355 355 354 352 351 350 349 348 347 345 344 342 340 338 336 334 333 333 333 331 325 319 314 313 312 312 312 313 313 312 310 308 306 304 302 301 301 300 299 299 298 297 296 296 295 296 296 296 295 295 295 294 292 292 292 292 294 296 297 299
315 320 322 324 325 326 326 323 320 319 321 327 337 347 354 357 356 353 349 345 343 341 339 336 334 334 334 335 336 338 337 335 332 330 329 332 336 341 345 347 349 351 353 354 353 352 351 351 351 351 351 350 349 347 346 345 344 341 339 340 342 343 343 341 334 326 322 321 321 320 319 317 316 314 312 310 308 305 303 300 298 297 296 295 295 296 296 295 295 296 296 296 296 296 296 295 294 294 293 294 295 297 300
309 312 315 317 319 320 320 318 316 316 320 324 332 342 350 351 349 345 342 338 333 329 327 325 325 327 328 330 334 337 336 334 332 331 332 335 340 344 347 348 349 351 352 352 351 351 351 352 353 353 353 352 351 351 352 353 354 352 349 353 355 355 354 353 347 340 336 334 332 329 327 324 321 319 317 315 314 311 308 304 299 296 293 292 294 296 298 297 296 295 294 294 295 295 295 295 295 295 294 293 295 298 301
304 307 311 313 317 319 319 316 315 316 322 327 332 338 344 344 341 338 337 332 327 322 320 319 322 324 324 328 334 338 338 336 335 337 340 343 346 348 349 349 350 351 350 349 348 348 349 350 350 350 350 349 349 350 352 355 357 358 358 1 2 2 1 358 353 347 342 341 339 337 334 330 327 324 322 319 318 316 313 310 306 300 296 293 292 294 296 295 293 292 291 291 293 294 293 294 294 294 293 293 296 299 300
302 307 313 318 322 322 321 317 316 318 323 325 327 332 338 338 333 329 328 324 320 317 315 314 316 317 320 327 334 339 340 340 341 343 343 346 349 350 347 347 346 345 343 342 341 342 343 344 345 345 345 344 344 345 347 348 350 351 353 354 356 358 358 356 351 345 341 339 341 342 340 337 334 331 328 323 320 316 313 312 311 308 303 297 293 292 293 292 292 292 292 293 293 294 295 293 291 291 292 294 297 300 302
307 314 322 327 327 323 318 314 312 311 311 310 311 320 336 335 328 320 315 310 308 307 307 308 307 308 315 325 333 338 340 343 346 346 344 343 343 343 340 337 336 334 334 335 337 339 340 342 343 343 343 342 340 340 341 342 343 344 344 345 347 348 349 349 348 345 343 343 346 349 349 348 345 340 333 329 324 319 314 314 314 313 310 304 298 295 295 295 297 297 295 297 299 301 301 293 289 291 296 299 302 305 306
319 321 326 334 329 319 310 307 309 310 307 295 294 307 335 329 317 306 303 302 304 307 308 306 304 307 317 327 334 339 344 346 345 341 338 337 336 336 335 333 331 331 333 334 336 338 340 341 343 344 343 342 340 339 339 340 341 342 343 343 344 345 347 349 351 352 353 357 360 1 1 359 357 353 347 341 332 325 321 319 318 318 317 313 310 308 307 309 308 306 307 312 313 311 307 300 298 303 308 310 313 314 312
309 315 330 338 330 318 317 331 349 1 4 355 270 280 307 311 307 304 305 321 336 339 330 323 320 322 329 335 338 340 341 343 340 336 335 335 334 333 334 333 333 333 334 335 336 338 340 341 343 344 345 344 343 342 342 343 345 347 348 349 350 351 354 357 1 5 9 14 14 11 9 7 6 4 359 352 340 332 334 334 333 333 333 331 331 332 330 327 324 325 329 331 329 327 326 327 329 326 320 319 318 318 318
288 312 357 340 342 11 39 42 49 53 55 69 117 144 341 337 340 350 8 17 11 358 347 344 342 340 343 343 340 337 339 337 335 333 333 334 334 333 334 334 336 336 336 337 338 340 341 342 344 346 347 348 349 348 348 350 352 355 359 1 3 5 8 12 15 19 25 27 22 17 14 11 10 9 8 8 1 355 356 353 352 354 352 349 348 348 348 345 345 346 347 345 344 342 342 341 339 334 327 324 324 325 328
266 63 90 18 45 71 75 79 78 70 62 65 72 72 57 40 32 26 18 7 357 351 351 353 352 348 345 343 339 336 334 332 331 330 330 332 333 333 333 335 336 337 338 340 341 342 343 346 347 349 351 353 354 355 357 359 3 7 11 14 16 19 22 25 27 29 32 31 25 19 15 13 13 13 14 13 14 14 13 10 5 3 3 5 7 5 0 356 356 358 359 355 349 344 341 337 334 332 332 335 337 339 341
120 110 121 121 109 100 96 93 88 73 51 44 45 47 44 32 20 7 356 348 344 347 355 356 353 348 345 341 340 338 334 331 329 328 328 329 331 332 333 335 336 337 339 342 343 344 345 349 351 354 356 358 360 1 4 8 12 16 19 22 24 26 28 29 30 29 29 28 24 18 15 14 15 15 16 15 14 14 12 10 6 2 2 5 5 2 0 360 1 1 360 353 346 339 335 334 335 338 339 343 346 346 345
114 108 115 114 110 108 106 101 92 78 53 37 36 36 30 21 8 355 348 347 351 357 1 0 355 349 345 343 342 340 336 333 331 330 330 330 331 332 334 336 337 339 340 342 343 345 347 351 354 357 360 2 4 6 8 12 16 18 19 21 23 25 25 26 26 24 23 22 19 17 15 14 14 15 15 14 13 11 8 8 8 5 2 3 1 359 359 359 359 357 354 348 343 339 336 334 334 336 340 343 344 343 342
129 107 105 104 103 102 101 97 90 82 67 47 38 34 27 22 17 11 8 9 10 8 5 1 356 351 348 345 343 340 338 336 334 334 333 334 335 336 337 338 340 341 342 343 344 347 351 354 357 359 0 3 4 6 8 11 14 15 14 15 17 18 19 20 20 19 18 16 14 13 12 11 11 11 12 12 11 9 7 6 6 5 4 1 358 356 355 354 352 351 349 345 342 338 335 333 333 335 339 340 339 338 337
132 113 96 90 87 87 89 88 83 75 65 51 40 31 24 19 15 13 10 11 10 8 3 358 354 350 347 344 340 339 339 339 339 338 339 339 341 343 344 344 345 346 347 347 349 351 355 359 0 0 0 2 3 5 8 10 11 10 9 10 10 11 12 13 14 14 13 12 10 9 8 7 7 7 8 9 9 6 4 5 4 3 1 358 355 353 352 350 348 346 343 341 339 337 336 334 336 338 339 338 335 334 332
129 123 100 78 73 77 86 87 82 72 59 46 29 16 7 2 359 358 358 359 1 0 358 353 349 347 344 341 339 338 341 343 344 344 346 348 350 351 352 352 352 351 351 351 352 354 359 1 2 2 2 2 5 8 9 10 7 6 6 7 7 7 8 9 10 10 10 9 7 5 4 2 2 2 2 4 5 4 4 3 1 359 356 353 351 350 348 346 344 342 340 338 336 335 334 334 335 336 336 334 332 330 329
162 165 168 154 101 84 90 91 85 73 57 37 17 4 355 351 349 349 349 349 349 350 351 349 347 346 345 343 343 344 347 349 349 351 353 356 357 356 355 355 354 353 352 351 351 354 358 2 3 3 5 7 10 10 9 7 4 4 5 6 6 6 6 5 6 6 6 5 3 2 360 359 358 357 358 359 360 0 1 0 358 355 353 351 349 347 346 345 343 342 340 337 335 333 332 332 332 332 332 331 329 328 326
173 174 169 160 141 111 97 90 78 63 42 21 4 355 352 351 350 350 348 346 346 348 350 350 352 353 353 354 356 358 359 358 358 358 358 359 357 356 355 354 352 350 349 348 348 350 355 360 2 3 6 9 10 8 6 2 2 3 5 6 6 6 5 5 4 3 2 1 0 358 357 355 354 354 354 355 357 357 358 356 354 352 350 349 348 347 345 344 342 340 338 336 334 332 331 331 331 330 330 328 327 326 325
167 164 153 143 131 115 96 75 57 39 22 6 358 356 356 355 354 353 352 351 353 355 356 358 0 2 4 8 10 11 10 7 5 4 2 359 356 354 354 352 349 347 345 344 344 346 352 356 358 1 4 5 5 3 0 359 360 2 4 5 6 6 5 4 3 0 359 358 356 355 354 352 351 351 352 353 354 354 353 351 350 349 348 348 348 346 345 343 341 338 337 335 333 331 331 330 329 328 328 327 326 325 324
158 150 143 136 126 113 90 65 47 30 12 5 3 1 0 359 359 359 359 2 4 5 5 6 6 8 12 14 16 15 13 11 8 6 3 0 357 355 353 350 347 345 342 340 339 342 349 352 354 356 358 359 358 357 355 355 357 360 2 4 5 5 4 3 1 358 356 355 353 352 351 350 349 349 350 351 351 351 350 348 347 346 347 347 346 345 344 342 340 338 336 334 332 331 330 329 328 328 327 326 326 325 325
143 137 134 132 118 98 81 66 46 25 10 8 9 7 4 2 4 8 9 12 13 13 12 10 9 12 15 14 13 12 11 9 7 5 2 0 358 356 352 349 347 344 340 338 337 341 346 350 351 352 352 353 352 350 349 352 355 358 360 2 3 3 2 0 358 356 354 352 350 349 348 348 348 348 348 348 348 348 347 345 345 345 346 346 345 343 342 342 340 337 335 334 332 331 330 329 328 328 327 327 326 325 324
128 131 129 121 103 84 71 57 38 17 11 12 13 11 7 8 13 17 17 17 19 21 19 16 16 18 18 14 10 8 7 5 4 3 0 359 358 355 352 349 346 343 340 338 338 341 346 349 349 349 347 346 345 343 345 349 353 355 356 358 359 360 359 357 355 353 351 349 348 347 346 345 345 345 345 346 345 345 343 343 343 343 344 344 343 342 341 342 340 337 335 334 332 331 330 329 328 328 327 326 326 325 324
128 125 117 104 86 71 58 45 24 10 11 16 16 14 13 16 19 21 21 21 25 29 28 25 23 22 20 15 11 8 4 3 2 1 360 357 355 353 351 349 347 344 341 339 339 342 346 347 346 345 342 340 338 338 342 347 350 352 353 354 355 356 355 354 352 350 348 347 345 344 343 343 342 342 343 342 342 341 340 340 340 341 342 342 341 340 340 340 339 338 335 334 333 332 331 330 329 328 327 326 325 323 322
122 111 96 83 72 61 49 36 20 7 9 17 18 18 19 22 22 22 24 26 29 33 33 31 27 23 20 18 14 10 6 4 2 0 358 356 353 352 351 350 348 345 342 340 339 340 343 344 343 341 338 335 333 336 341 346 348 349 350 351 351 351 351 350 348 346 345 344 343 342 341 340 340 339 339 339 338 338 337 338 338 339 339 339 339 339 339 338 338 338 337 335 334 333 332 330 329 328 326 325 324 322 321
100 87 75 68 61 52 41 30 17 8 7 13 17 20 24 26 26 26 27 27 28 32 34 33 29 26 23 21 19 15 11 7 2 359 357 354 352 351 351 351 349 346 343 340 339 339 339 339 338 336 334 331 332 337 343 345 346 346 346 346 347 347 346 345 344 343 342 341 340 340 339 338 337 336 336 336 335 335 335 335 336 336 336 336 336 337 337 337 337 336 336 335 335 334 332 330 329 328 326 324 323 321 320
78 71 63 56 49 40 31 21 12 7 6 11 15 20 24 26 27 28 29 28 26 27 31 32 31 29 26 24 22 18 14 8 2 358 355 353 352 351 351 351 349 345 341 339 338 337 335 335 334 331 329 329 335 340 343 343 342 341 341 342 343 342 342 341 340 339 338 338 338 338 337 336 335 334 334 333 333 333 333 333 333 334 334 334 334 335 335 335 335 334 334 334 334 333 331 330 328 326 325 323 322 320 319
65 59 54 46 38 29 22 13 7 6 6 6 10 15 20 24 27 28 28 27 25 23 23 24 26 27 27 23 20 16 11 6 0 356 354 352 351 350 349 349 347 344 339 337 335 334 331 330 328 326 325 330 337 340 340 339 337 336 337 338 338 338 336 335 335 335 334 335 335 334 334 333 332 332 332 332 332 331 331 331 331 331 331 332 332 333 333 333 333 332 332 332 333 332 331 329 327 325 324 322 321 320 318
53 48 44 38 31 23 17 10 7 5 4 5 10 18 23 25 26 26 27 25 23 21 18 15 15 17 20 18 15 12 8 3 359 356 353 351 350 348 346 344 344 341 336 334 332 329 327 325 323 321 323 330 336 337 336 334 333 334 336 335 334 332 332 331 331 331 331 331 331 330 330 329 329 329 329 330 330 330 330 329 329 329 329 330 330 331 331 331 330 330 330 331 331 331 330 328 327 325 324 322 320 319 318
43 40 39 35 28 21 18 14 11 8 7 11 20 28 32 31 30 29 27 24 23 21 17 12 10 10 10 11 11 9 6 3 360 356 353 350 348 346 343 339 338 337 335 332 328 324 321 318 316 317 323 331 333 332 331 330 332 334 333 330 329 328 328 328 328 328 328 327 327 326 326 326 326 326 326 327 328 328 328 328 328 328 328 328 328 329 329 328 328 328 329 329 330 329 329 327 326 325 323 322 321 319 319
43 40 38 33 26 22 22 19 16 14 16 22 32 39 39 37 35 31 27 23 21 19 16 13 11 10 10 11 12 10 8 4 360 356 355 353 348 343 340 338 334 331 330 331 327 320 314 310 309 315 325 330 330 329 328 329 330 330 328 325 324 324 325 326 326 326 325 324 323 323 323 323 323 323 324 325 326 326 326 326 327 327 327 327 327 327 327 327 327 327 327 327 327 327 327 326 325 324 324 322 321 320 319
44 41 37 33 29 27 29 27 25 25 29 35 41 45 44 39 35 30 25 20 17 14 13 14 14 14 13 16 16 14 11 7 2 359 1 0 352 339 337 333 330 328 329 330 327 318 306 298 304 320 327 327 326 326 327 328 327 324 323 322 322 323 324 325 324 323 322 321 321 320 320 320 321 321 322 323 324 324 325 325 325 326 326 326 326 326 326 325 325 325 325 325 325 325 325 325 325 324 324 323 321 320 320
45 40 36 33 33 36 39 39 39 39 40 43 45 46 42 36 30 24 20 17 15 13 13 14 15 14 13 17 18 16 14 11 9 8 7 359 348 333 310 307 313 325 334 335 331 318 291 277 309 324 324 323 324 325 326 324 322 321 320 321 321 322 322 323 322 321 320 319 318 318 318 319 319 320 321 321 322 323 323 324 324 324 324 324 324 324 324 324 323 323 323 323 323 323 324 324 324 324 324 323 322 321 320
44 39 35 35 40 43 45 46 47 46 42 40 39 38 34 29 26 23 20 20 19 17 16 15 13 11 10 12 13 14 14 15 16 17 15 357 345 336 323 324 332 337 337 334 332 327 282 299 323 324 322 322 322 323 323 321 319 319 320 320 321 321 321 321 320 319 318 317 317 317 317 317 318 319 320 320 321 321 322 322 322 322 322 322 322 321 321 321 321 321 321 321 322 322 323 324 325 324 323 322 322 321 320
42 39 36 39 42 44 42 43 43 42 36 30 29 29 27 25 26 27 24 24 24 22 20 17 11 8 7 6 7 10 12 15 19 21 20 11 358 348 349 9 6 335 327 337 329 326 355 352 333 325 322 320 319 318 320 320 319 319 320 320 320 319 319 319 318 317 316 316 316 316 316 317 317 318 319 319 320 320 320 320 320 319 319 319 319 319 319 319 319 319 319 320 321 322 324 325 325 323 322 322 321 320 319
40 38 38 39 39 37 35 35 36 34 30 24 23 25 27 29 30 30 29 28 26 24 21 17 12 10 11 7 5 6 9 13 18 24 26 22 17 9 354 351 302 270 235 75 355 329 328 346 330 321 317 317 318 318 318 318 318 318 319 319 319 318 318 318 317 316 316 316 316 316 316 317 317 318 318 318 318 318 317 317 317 317 317 317 316 316 316 317 317 318 318 319 321 322 323 324 324 322 320 321 320 320 319
38 36 35 35 32 30 29 28 30 30 29 25 23 27 32 35 36 35 32 31 28 24 20 16 13 13 15 11 6 4 6 10 16 23 30 28 28 28 14 314 301 313 352 59 48 334 317 331 325 318 315 322 327 323 318 318 318 318 318 318 318 318 318 318 317 316 315 314 314 315 315 316 316 317 317 316 316 315 315 315 314 314 314 314 314 314 314 315 316 317 318 319 320 321 322 323 323 321 319 319 319 318 317
35 33 30 29 27 26 24 23 25 28 29 27 28 32 39 42 42 40 37 33 29 25 20 16 14 14 14 13 9 5 4 6 12 20 29 31 30 29 26 18 359 348 345 348 338 311 311 330 325 307 312 326 328 322 316 316 317 318 318 318 318 318 318 317 316 315 314 313 313 314 314 315 315 315 315 314 313 313 313 312 312 312 312 312 312 312 313 313 314 316 316 317 318 319 321 322 321 320 318 318 318 317 316
28 28 27 24 23 21 19 20 22 25 29 31 34 39 44 47 46 42 38 33 29 25 20 16 14 13 12 11 10 8 7 7 9 14 25 28 24 24 28 28 36 71 326 307 307 312 319 332 332 312 310 317 316 313 313 316 317 317 317 317 318 318 317 315 314 313 313 313 313 313 314 314 314 313 313 312 311 311 311 310 310 310 310 310 310 311 311 312 313 314 315 315 316 318 320 321 320 318 317 316 316 315 315
21 22 22 20 18 16 17 18 21 25 31 34 37 41 45 45 43 39 34 31 28 24 19 15 13 13 12 9 8 9 11 11 10 10 15 20 18 17 21 21 17 359 312 287 296 308 316 335 334 310 310 314 313 313 315 317 317 317 317 317 317 316 315 314 313 313 312 312 312 313 313 312 312 311 310 310 309 309 309 308 308 308 308 308 309 309 310 311 312 313 314 315 316 317 319 320 319 317 316 315 314 314 314
17 17 17 17 16 16 17 18 21 27 32 35 35 37 39 39 38 35 32 30 26 23 19 16 14 12 11 8 8 10 13 14 12 10 8 10 10 12 14 11 3 350 333 320 317 318 321 323 317 316 320 317 316 317 317 316 315 315 315 316 316 316 314 313 312 312 311 311 312 312 311 310 309 309 309 308 308 307 307 306 306 306 307 307 308 308 309 310 311 312 314 315 316 317 318 318 317 314 314 313 313 313 313
15 16 17 17 16 18 18 20 22 27 31 31 29 30 33 35 35 33 30 28 24 21 18 17 15 12 9 7 9 11 13 12 13 14 11 4 0 4 9 6 360 353 343 333 329 326 320 306 295 301 316 312 313 315 315 314 314 314 313 313 315 315 313 312 311 310 310 310 311 310 309 308 308 308 307 307 306 305 305 304 304 305 305 306 306 307 308 309 311 312 314 315 316 316 316 316 314 313 312 312 312 312 312
14 14 17 19 18 17 19 20 24 27 28 27 25 26 28 30 29 26 25 23 21 19 17 15 14 12 10 8 8 10 11 10 12 14 14 7 358 357 2 2 358 352 346 340 335 329 321 311 305 301 294 292 301 305 307 311 315 316 314 314 314 314 311 310 309 309 309 309 308 307 307 306 306 306 306 305 304 303 303 303 303 303 304 305 306 307 308 309 310 312 313 314 314 314 314 313 312 311 312 312 311 311 310